Measurements were made at the meteorological tower in Juelich (50.90 N / 6.40 E) at an altitude of 100 m
"Instrument: Fast Greenhouse Gas Analyzer (FGGA), Los Gatos Inc."
Responsible PI: Dr. Marc von Hobe; Forschungszentrum Juelich GmbH; IEK-7; email: m.von.hobe@fz-juelich.de
NaN or negative numbers are fill values (i.e. no valid measurements were made at that time)
Uncertainties are given as the 1-sigma standard deviation over each 10 minute intervals. In each interval ~600 individual measurements are carried out so that the standard error of the mean is approximately sigma/sqrt(600).
time_utc,CO2_ppm,stdev_CO2_ppm,CH4_ppm,stdev_CH4_ppm,H2O_ppm,stdev_H2O_ppm
"2017-05-01 00:05:00 000",405.603,0.980339,1.95676,0.00482653,5714.06,115.784
"2017-05-01 00:15:00 000",405.628,0.962798,1.95758,0.00446215,5851.82,99.9033
"2017-05-01 00:25:00 000",405.692,0.968188,1.96088,0.00443752,5860.79,105.237
"2017-05-01 00:35:00 000",406.128,0.901156,1.96375,0.00418065,5848.20,109.563
"2017-05-01 00:45:00 000",406.055,0.959935,1.96095,0.00515825,5967.29,113.134
"2017-05-01 00:55:00 000",406.549,0.938044,1.96171,0.00496839,5932.72,112.254
"2017-05-01 01:05:00 000",407.451,0.949033,1.96348,0.00451492,5950.95,108.684
"2017-05-01 01:15:00 000",408.111,0.895622,1.96374,0.00401575,6002.27,108.167
"2017-05-01 01:25:00 000",407.656,0.883871,1.96142,0.00476500,6021.07,109.521
"2017-05-01 01:35:00 000",408.269,0.991879,1.96056,0.00418697,6116.53,114.476
"2017-05-01 01:45:00 000",407.982,1.03369,1.95716,0.00433420,6104.94,106.240
"2017-05-01 01:55:00 000",408.049,1.02502,1.95958,0.00438839,6107.99,110.685
"2017-05-01 02:05:00 000",408.357,1.03635,1.95998,0.00421064,6155.55,100.689
"2017-05-01 02:15:00 000",408.890,0.990662,1.95754,0.00431845,6197.34,108.191
"2017-05-01 02:25:00 000",409.552,1.05328,1.95762,0.00430851,6156.05,111.719
"2017-05-01 02:35:00 000",409.511,1.04666,1.95731,0.00448492,6272.66,103.588
"2017-05-01 02:45:00 000",409.311,0.980632,1.96050,0.00418630,6234.37,104.070
"2017-05-01 02:55:00 000",409.196,0.997082,1.96572,0.00449947,6255.75,90.9393
"2017-05-01 03:05:00 000",410.198,0.923864,1.97092,0.00625694,6244.23,94.6194
"2017-05-01 03:15:00 000",410.799,0.908777,1.96619,0.00404663,6259.06,107.287
"2017-05-01 03:25:00 000",409.936,1.02019,1.96815,0.00472581,6400.14,116.430
"2017-05-01 03:35:00 000",410.902,0.957948,1.96972,0.00409779,6338.06,112.701
"2017-05-01 03:45:00 000",412.125,0.947646,1.97005,0.00740783,6494.91,164.511
"2017-05-01 03:55:00 000",412.331,1.06640,1.96829,0.00434848,6726.21,115.026
"2017-05-01 04:05:00 000",414.429,1.80503,1.96821,0.00536560,6807.28,137.918
"2017-05-01 04:15:00 000",415.908,1.33295,1.99409,0.0239404,6717.16,126.902
"2017-05-01 04:25:00 000",416.905,1.63096,1.98971,0.0137416,7142.95,348.506
"2017-05-01 04:35:00 000",416.466,1.86788,1.97102,0.0141568,7649.65,143.128
"2017-05-01 04:45:00 000",412.188,2.54957,1.93550,0.0132323,8110.60,153.364
"2017-05-01 04:55:00 000",408.767,1.65801,1.91322,0.00765531,8273.88,92.0603
"2017-05-01 05:05:00 000",407.840,0.883639,1.90628,0.00432455,8344.34,94.9219
"2017-05-01 05:15:00 000",407.608,0.923128,1.90471,0.00406555,8451.06,99.5410
"2017-05-01 05:25:00 000",407.904,0.981398,1.90271,0.00365755,8504.52,99.4603
"2017-05-01 05:35:00 000",407.192,0.942660,1.90085,0.00388133,8523.21,108.357
"2017-05-01 05:45:00 000",406.955,1.00878,1.90108,0.00407616,8560.94,109.930
"2017-05-01 05:55:00 000",406.794,0.887682,1.89988,0.00419061,8611.79,130.370
"2017-05-01 06:05:00 000",406.909,0.873625,1.90311,0.00435414,8683.22,119.752
"2017-05-01 06:15:00 000",408.051,0.874614,1.90618,0.00426285,8661.78,125.735
"2017-05-01 06:25:00 000",407.646,0.873489,1.90972,0.00425381,8664.61,128.544
"2017-05-01 06:35:00 000",412.763,2.63767,1.90956,0.00482912,8650.59,131.997
"2017-05-01 06:45:00 000",415.310,1.44623,1.90914,0.00456649,8632.13,137.716
"2017-05-01 06:55:00 000",417.109,3.17755,1.90721,0.00423476,8697.51,146.432
"2017-05-01 07:05:00 000",415.442,3.51825,1.90953,0.00426973,8777.16,145.020
"2017-05-01 07:15:00 000",411.938,1.79361,1.91162,0.00454036,8762.79,148.554
"2017-05-01 07:25:00 000",409.693,1.11147,1.91487,0.00439335,8685.31,149.434
"2017-05-01 07:35:00 000",410.943,1.81301,1.91533,0.00441606,8660.78,146.273
"2017-05-01 07:45:00 000",410.854,0.907440,1.91837,0.00469649,8617.52,141.527
"2017-05-01 07:55:00 000",410.091,1.47497,1.91707,0.00466947,8586.43,134.087
"2017-05-01 08:05:00 000",410.159,1.21483,1.91986,0.00556318,8673.12,149.813
"2017-05-01 08:15:00 000",410.261,1.35268,1.92267,0.00488089,8782.04,124.151
"2017-05-01 08:25:00 000",409.170,1.38419,1.91934,0.00398233,8643.09,92.9210
"2017-05-01 08:35:00 000",406.724,0.990797,1.92380,0.0102653,8732.55,101.304
"2017-05-01 08:45:00 000",405.551,0.894510,1.92504,0.00972291,8726.55,93.9852
"2017-05-01 08:55:00 000",404.627,0.959361,1.92384,0.00721452,8750.29,96.4209
"2017-05-01 09:05:00 000",405.973,1.08077,1.91440,0.00396834,8461.65,144.369
"2017-05-01 09:15:00 000",405.982,1.00071,1.91451,0.00781389,8364.74,125.353
"2017-05-01 09:25:00 000",405.368,0.873562,1.92251,0.00782151,8671.13,85.1820
"2017-05-01 09:35:00 000",405.868,0.913788,1.91595,0.00490986,8557.47,80.9340
"2017-05-01 09:45:00 000",406.273,0.879996,1.91279,0.00384200,8697.07,98.5299
"2017-05-01 09:55:00 000",405.974,0.833713,1.91286,0.00353963,8761.21,78.0949
"2017-05-01 10:05:00 000",405.786,0.925179,1.91257,0.00431067,8696.41,84.2981
"2017-05-01 10:15:00 000",405.683,0.811506,1.91437,0.00416236,8674.29,85.6569
"2017-05-01 10:25:00 000",405.518,0.851768,1.91671,0.00719525,8763.66,78.0793
"2017-05-01 10:35:00 000",404.903,0.923692,1.91780,0.0105595,8838.95,92.0675
"2017-05-01 10:45:00 000",404.801,0.940450,1.91360,0.00441682,8942.38,109.378
"2017-05-01 10:55:00 000",403.854,0.888173,1.91408,0.00506753,9065.64,97.8248
"2017-05-01 11:05:00 000",403.832,0.849699,1.91807,0.00523372,9026.50,99.7088
"2017-05-01 11:15:00 000",403.763,0.824789,1.92079,0.00453608,8316.72,355.263
"2017-05-01 11:25:00 000",404.431,0.901061,1.92327,0.00459858,7766.11,97.2353
"2017-05-01 11:35:00 000",404.571,0.801996,1.92608,0.00473641,8122.15,131.835
"2017-05-01 11:45:00 000",403.791,0.890951,1.92580,0.00559935,7949.55,105.639
"2017-05-01 11:55:00 000",403.826,0.816342,1.92766,0.00539267,7879.97,101.947
"2017-05-01 12:05:00 000",402.991,0.956541,1.92698,0.00699996,7903.22,83.9145
"2017-05-01 12:15:00 000",401.828,0.932395,1.92030,0.00523091,7872.46,102.010
"2017-05-01 12:25:00 000",400.806,0.829156,1.92255,0.00435186,8031.78,87.6089
"2017-05-01 12:35:00 000",401.273,0.994759,1.92414,0.00554209,8092.71,131.973
"2017-05-01 12:45:00 000",401.365,0.915979,1.92734,0.00733390,8143.68,106.934
"2017-05-01 12:55:00 000",401.403,0.858257,1.92629,0.00622829,8113.86,114.339
"2017-05-01 13:05:00 000",402.085,0.855920,1.92871,0.00595357,8034.67,107.017
"2017-05-01 13:15:00 000",401.442,0.939258,1.92785,0.00878150,8213.20,109.375
"2017-05-01 13:25:00 000",401.418,0.779507,1.92267,0.00471705,8033.28,106.683
"2017-05-01 13:35:00 000",401.508,1.00775,1.92623,0.00599654,8093.80,114.567
"2017-05-01 13:45:00 000",402.310,1.09486,1.92441,0.00412461,7940.09,140.696
"2017-05-01 13:55:00 000",403.942,1.43365,1.92444,0.00440145,7608.22,167.391
"2017-05-01 14:05:00 000",404.807,1.21056,1.92559,0.00444413,6781.98,207.498
"2017-05-01 14:15:00 000",405.298,1.03940,1.93550,0.00895157,6968.63,121.638
"2017-05-01 14:25:00 000",405.464,0.953780,1.94718,0.0119744,7116.08,128.621
"2017-05-01 14:35:00 000",404.170,0.895961,1.93293,0.0119077,7053.98,185.429
"2017-05-01 14:45:00 000",403.738,0.941659,1.94789,0.00604491,7135.37,130.664
"2017-05-01 14:55:00 000",403.333,1.36410,1.94326,0.0130741,7197.58,223.611
"2017-05-01 15:05:00 000",402.618,1.00066,1.92507,0.00535169,6780.49,140.420
"2017-05-01 15:15:00 000",403.542,0.885483,1.92608,0.00627022,6714.12,106.897
"2017-05-01 15:25:00 000",403.842,0.974164,1.93050,0.00877969,6714.41,135.334
"2017-05-01 15:35:00 000",404.620,0.861307,1.93444,0.00954230,6705.70,152.741
"2017-05-01 15:45:00 000",404.595,0.850591,1.94957,0.00887374,6837.74,101.037
"2017-05-01 15:55:00 000",404.630,0.859050,1.93396,0.00922321,6763.93,112.743
"2017-05-01 16:05:00 000",404.750,0.872015,1.92568,0.00432542,6788.27,99.9685
"2017-05-01 16:15:00 000",403.999,1.14390,1.92514,0.00435170,6659.53,131.681
"2017-05-01 16:25:00 000",404.235,1.04133,1.92558,0.00440005,6638.74,113.295
"2017-05-01 16:35:00 000",403.451,0.955282,1.92490,0.00435685,6757.40,122.006
"2017-05-01 16:45:00 000",402.513,1.12675,1.92460,0.00457392,6682.13,146.115
"2017-05-01 16:55:00 000",401.802,1.12293,1.92310,0.00455350,6888.01,133.592
"2017-05-01 17:05:00 000",401.745,1.02991,1.92517,0.00469340,6796.95,137.233
"2017-05-01 17:15:00 000",400.821,0.998570,1.92612,0.00458608,6872.38,158.820
"2017-05-01 17:25:00 000",400.735,1.27817,1.92558,0.00463184,7070.69,165.335
"2017-05-01 17:35:00 000",400.745,1.28627,1.92589,0.00458253,7020.94,146.692
"2017-05-01 17:45:00 000",401.447,1.08275,1.92553,0.00558791,7061.60,143.244
"2017-05-01 17:55:00 000",400.944,1.03742,1.92538,0.00543764,7121.22,163.391
"2017-05-01 18:05:00 000",401.757,1.26201,1.92931,0.00703095,7064.44,188.801
"2017-05-01 18:15:00 000",404.977,0.907969,1.93959,0.00538670,8569.46,526.452
"2017-05-01 18:25:00 000",406.078,1.32629,1.92908,0.00524548,9256.67,168.734
"2017-05-01 18:35:00 000",405.478,1.43807,1.92563,0.00519149,9240.57,180.912
"2017-05-01 18:45:00 000",407.598,1.51402,1.92704,0.00442836,9085.01,133.960
"2017-05-01 18:55:00 000",408.009,1.54539,1.92848,0.00483909,9032.47,130.010
"2017-05-01 19:05:00 000",408.089,0.982164,1.93126,0.00512366,9015.47,130.251
"2017-05-01 19:15:00 000",408.288,0.944901,1.93430,0.00450422,8951.09,118.494
"2017-05-01 19:25:00 000",409.370,1.09105,1.93733,0.00428708,8982.66,120.889
"2017-05-01 19:35:00 000",410.050,1.12090,1.94167,0.00415096,8951.64,110.702
"2017-05-01 19:45:00 000",410.113,1.17720,1.94306,0.00473972,8921.16,103.805
"2017-05-01 19:55:00 000",410.249,0.911805,1.94512,0.00402712,8885.30,102.918
"2017-05-01 20:05:00 000",411.131,1.09244,1.94606,0.00418851,8882.82,133.756
"2017-05-01 20:15:00 000",410.771,1.01879,1.94638,0.00433418,8783.48,97.9097
"2017-05-01 20:25:00 000",407.919,1.03548,1.94025,0.00445860,8747.45,81.6040
"2017-05-01 20:35:00 000",408.826,0.996946,1.93883,0.00472295,8784.79,97.0942
"2017-05-01 20:45:00 000",407.890,1.11103,1.93527,0.00466649,8837.60,90.5210
"2017-05-01 20:55:00 000",408.252,1.09962,1.93343,0.00481517,8886.07,87.0015
"2017-05-01 21:05:00 000",408.710,1.00596,1.93570,0.00456531,8884.56,88.3886
"2017-05-01 21:15:00 000",408.891,1.00261,1.93485,0.00433293,8858.68,78.0256
"2017-05-01 21:25:00 000",409.973,0.915017,1.93254,0.00487061,8865.34,87.6253
"2017-05-01 21:35:00 000",409.613,1.04427,1.93357,0.00600811,8848.41,91.3341
"2017-05-01 21:45:00 000",409.217,1.03015,1.93080,0.00457621,8783.46,116.020
"2017-05-01 21:55:00 000",410.323,0.878330,1.93707,0.00461998,8461.30,140.964
"2017-05-01 22:05:00 000",410.696,0.981853,1.93885,0.00472929,8319.66,89.2208
"2017-05-01 22:15:00 000",410.813,0.894569,1.93485,0.00397409,8345.79,89.7527
"2017-05-01 22:25:00 000",411.471,0.817138,1.93489,0.00378852,8382.95,97.3380
"2017-05-01 22:35:00 000",411.877,0.912948,1.93772,0.00414647,8426.66,92.6357
"2017-05-01 22:45:00 000",412.175,0.856325,1.93833,0.00384747,8473.56,93.2179
"2017-05-01 22:55:00 000",412.319,0.845870,1.93910,0.00387930,8432.40,78.1812
"2017-05-01 23:05:00 000",412.770,0.803111,1.94081,0.00373241,8435.86,77.6949
"2017-05-01 23:15:00 000",413.396,0.876772,1.94319,0.00402851,8499.27,76.2368
"2017-05-01 23:25:00 000",413.769,0.980471,1.94488,0.00350874,8468.41,78.5430
"2017-05-01 23:35:00 000",414.774,0.900184,1.94825,0.00428600,8493.79,77.9017
"2017-05-01 23:45:00 000",416.287,1.00468,1.95071,0.00383995,8495.75,81.6882
"2017-05-01 23:55:00 000",422.147,3.94727,1.96667,0.0142786,8523.87,79.5278
"2017-05-02 00:05:00 000",422.127,1.99270,1.97068,0.00838564,8546.03,79.9067
"2017-05-02 00:15:00 000",419.462,0.885689,1.96339,0.00425078,8532.61,81.1815
"2017-05-02 00:25:00 000",418.874,0.847391,1.95993,0.00396322,8485.67,87.1586
"2017-05-02 00:35:00 000",416.829,2.23074,1.96954,0.0109015,8484.55,82.6508
"2017-05-02 00:45:00 000",412.416,1.83061,1.95204,0.0167308,8466.72,110.105
"2017-05-02 00:55:00 000",412.109,2.51551,1.94421,0.00897945,8060.26,123.652
"2017-05-02 01:05:00 000",411.150,2.16104,1.93400,0.00604656,8051.74,96.3598
"2017-05-02 01:15:00 000",410.361,1.41326,1.93649,0.00482873,8021.58,92.3653
"2017-05-02 01:25:00 000",410.874,1.07858,1.93588,0.00453734,7807.81,93.4035
"2017-05-02 01:35:00 000",410.045,0.890886,1.93347,0.00385873,7677.64,129.549
"2017-05-02 01:45:00 000",409.430,1.14590,1.93341,0.00367905,7589.50,89.0059
"2017-05-02 01:55:00 000",408.243,1.12927,1.93157,0.00409370,7535.61,98.6288
"2017-05-02 02:05:00 000",406.669,0.947602,1.92784,0.00431338,7522.12,100.382
"2017-05-02 02:15:00 000",405.495,1.19496,1.92562,0.00437667,7430.83,99.7728
"2017-05-02 02:25:00 000",406.210,0.976243,1.92355,0.00432160,7403.36,99.7234
"2017-05-02 02:35:00 000",406.103,1.13961,1.92298,0.00473302,7330.40,113.381
"2017-05-02 02:45:00 000",406.498,1.47236,1.92185,0.00419539,7422.97,126.016
"2017-05-02 02:55:00 000",407.051,1.16450,1.92115,0.00400466,7378.20,115.424
"2017-05-02 03:05:00 000",406.850,1.53409,1.92142,0.00449739,7237.91,135.048
"2017-05-02 03:15:00 000",403.033,1.41114,1.91962,0.00444078,7288.94,159.613
"2017-05-02 03:25:00 000",407.629,4.83563,1.92926,0.0176577,7540.89,168.428
"2017-05-02 03:35:00 000",426.089,1.70361,1.99469,0.00624790,7555.32,180.139
"2017-05-02 03:45:00 000",415.096,4.31639,1.95408,0.0209080,7981.45,193.697
"2017-05-02 03:55:00 000",420.688,3.68582,1.97114,0.0142079,8073.67,134.599
"2017-05-02 04:05:00 000",423.831,2.03175,1.98763,0.00583159,8092.70,173.536
"2017-05-02 04:15:00 000",428.225,2.27346,1.98960,0.00427313,8106.54,156.086
"2017-05-02 04:25:00 000",431.692,1.55158,2.00211,0.00651438,8029.21,125.390
"2017-05-02 04:35:00 000",432.562,1.21112,2.01449,0.00471727,7969.88,137.992
"2017-05-02 04:45:00 000",431.032,1.39887,2.00760,0.00469840,7934.00,122.957
"2017-05-02 04:55:00 000",430.594,1.02529,2.00921,0.00604162,7975.06,118.791
"2017-05-02 05:05:00 000",431.967,1.40523,2.01847,0.00437317,7928.73,110.033
"2017-05-02 05:15:00 000",430.615,1.05524,2.01416,0.00467176,7931.74,104.556
"2017-05-02 05:25:00 000",428.295,1.14574,2.01081,0.00423578,7949.98,97.0845
"2017-05-02 05:35:00 000",428.032,1.70997,2.00575,0.00444426,8020.26,94.1298
"2017-05-02 05:45:00 000",428.108,1.43304,2.00473,0.00514941,8021.66,99.9921
"2017-05-02 05:55:00 000",423.680,1.56867,1.98248,0.00939727,8134.04,103.181
"2017-05-02 06:05:00 000",422.981,1.12747,1.98063,0.00590575,8207.12,89.1946
"2017-05-02 06:15:00 000",424.471,2.62538,1.98368,0.0126056,8220.68,114.093
"2017-05-02 06:25:00 000",430.630,7.27255,1.99604,0.0182312,8245.68,108.850
"2017-05-02 06:35:00 000",423.896,0.893400,1.97520,0.00437158,8351.54,93.6746
"2017-05-02 06:45:00 000",425.213,2.66394,1.97209,0.00515211,8420.31,82.1980
"2017-05-02 06:55:00 000",441.743,13.0251,1.99465,0.0261500,8261.78,104.032
"2017-05-02 07:05:00 000",446.517,11.8453,2.00449,0.0257798,8211.16,101.506
"2017-05-02 07:15:00 000",465.884,1.57121,2.06002,0.0160823,8096.84,92.8127
"2017-05-02 07:25:00 000",465.035,1.73639,2.05743,0.0136723,8176.81,113.784
"2017-05-02 07:35:00 000",465.472,1.54547,2.04397,0.00770858,8142.36,107.762
"2017-05-02 07:45:00 000",457.845,3.53381,2.04666,0.00949278,8167.14,103.860
"2017-05-02 07:55:00 000",452.110,3.66129,2.03151,0.00944784,8225.89,105.679
"2017-05-02 08:05:00 000",446.847,3.17624,2.03093,0.0109588,8324.24,121.075
"2017-05-02 08:15:00 000",450.840,3.13898,2.04773,0.00906113,8367.19,117.494
"2017-05-02 08:25:00 000",449.715,2.95229,2.06174,0.00884239,8387.88,115.280
"2017-05-02 08:35:00 000",449.876,2.51040,2.06876,0.00687521,8460.41,147.214
"2017-05-02 08:45:00 000",450.010,3.27056,2.07483,0.00775326,8582.70,145.638
"2017-05-02 08:55:00 000",440.920,3.46052,2.05736,0.00783864,8673.33,159.106
"2017-05-02 09:05:00 000",441.576,2.62374,2.06478,0.00743959,8762.61,166.800
"2017-05-02 09:15:00 000",441.892,1.76290,2.07472,0.00556202,8850.94,184.834
"2017-05-02 09:25:00 000",440.939,1.81918,2.08696,0.00873572,8917.71,189.397
"2017-05-02 09:35:00 000",439.329,1.97750,2.10493,0.00853704,8832.59,184.087
"2017-05-02 09:45:00 000",439.802,1.01707,2.12682,0.00727823,8913.18,192.896
"2017-05-02 09:55:00 000",439.886,1.09530,2.14254,0.00665775,9019.68,196.465
"2017-05-02 10:05:00 000",440.346,0.919936,2.15537,0.00777967,9056.00,202.068
"2017-05-02 10:15:00 000",440.648,0.962382,2.16284,0.00619775,9157.31,204.931
"2017-05-02 10:25:00 000",440.865,1.03600,2.17204,0.00682649,9242.81,207.373
"2017-05-02 10:35:00 000",441.405,1.10844,2.18621,0.00821212,9215.62,208.595
"2017-05-02 10:45:00 000",440.174,1.11948,2.18838,0.00703509,9257.07,209.332
"2017-05-02 10:55:00 000",437.854,1.65674,2.18679,0.0107589,9255.08,199.780
"2017-05-02 11:05:00 000",437.086,1.30016,2.19117,0.00906310,9339.85,194.356
"2017-05-02 11:15:00 000",436.788,1.38923,2.19063,0.00843230,9464.84,187.449
"2017-05-02 11:25:00 000",432.840,1.56679,2.17142,0.0124936,9557.27,196.288
"2017-05-02 11:35:00 000",430.104,1.57171,2.15773,0.0133977,9676.34,198.834
"2017-05-02 11:45:00 000",427.101,1.14577,2.13527,0.00901387,9744.52,173.842
"2017-05-02 11:55:00 000",425.037,1.05337,2.12490,0.00883578,9838.08,151.353
"2017-05-02 12:05:00 000",421.584,1.31924,2.10507,0.00771324,9971.21,153.140
"2017-05-02 12:15:00 000",420.430,0.896178,2.09448,0.00615381,9942.05,123.054
"2017-05-02 12:25:00 000",419.749,0.883277,2.09976,0.00561855,10060.1,135.361
"2017-05-02 12:35:00 000",418.255,1.36892,2.09332,0.00617941,10068.8,110.784
"2017-05-02 12:45:00 000",417.354,1.00585,2.09063,0.00578136,10195.5,105.033
"2017-05-02 12:55:00 000",416.110,1.15645,2.09058,0.00546478,10128.1,92.9779
"2017-05-02 13:05:00 000",413.790,1.27099,2.07477,0.00679879,10376.4,137.417
"2017-05-02 13:15:00 000",412.517,1.04043,2.06563,0.00725097,10437.7,101.531
"2017-05-02 13:25:00 000",412.039,1.02029,2.06009,0.00499677,10413.7,104.008
"2017-05-02 13:35:00 000",411.306,1.04913,2.06248,0.00457538,10539.8,145.157
"2017-05-02 13:45:00 000",411.483,1.00545,2.06850,0.00390816,10771.6,99.0179
"2017-05-02 13:55:00 000",411.015,1.05603,2.06878,0.00447660,10846.1,139.345
"2017-05-02 14:05:00 000",411.294,0.928693,2.06912,0.00529310,11090.5,103.502
"2017-05-02 14:15:00 000",411.950,1.28314,2.06599,0.00694336,10958.3,117.551
"2017-05-02 14:25:00 000",414.556,1.14836,2.07469,0.00447513,10687.8,125.797
"2017-05-02 14:35:00 000",414.795,0.859215,2.08478,0.00513296,10190.2,292.582
"2017-05-02 14:45:00 000",414.973,0.902214,2.09039,0.00418402,9410.87,144.556
"2017-05-02 14:55:00 000",414.669,0.943098,2.08503,0.00493726,9170.78,132.847
"2017-05-02 15:05:00 000",415.406,0.901581,2.08269,0.00446422,9060.25,126.377
"2017-05-02 15:15:00 000",414.942,1.13621,2.07498,0.00546601,9044.34,222.842
"2017-05-02 15:25:00 000",413.085,1.03601,2.06512,0.00527174,8640.45,147.930
"2017-05-02 15:35:00 000",412.152,1.15610,2.06710,0.00567445,8629.15,127.590
"2017-05-02 15:45:00 000",411.506,1.01966,2.07248,0.00566530,8657.54,103.922
"2017-05-02 15:55:00 000",410.004,0.959617,2.07475,0.00479722,9041.21,176.655
"2017-05-02 16:05:00 000",409.987,1.34183,2.05020,0.0354897,8988.68,304.995
"2017-05-02 16:15:00 000",409.412,1.43164,2.00875,0.00490858,8237.88,109.156
"2017-05-02 16:25:00 000",411.387,3.50329,1.98413,0.0140209,8534.01,201.847
"2017-05-02 16:35:00 000",412.980,1.65960,1.98826,0.00439127,8463.38,145.098
"2017-05-02 16:45:00 000",411.177,1.09057,1.99320,0.00489196,8344.66,113.699
"2017-05-02 16:55:00 000",411.475,0.997322,1.99793,0.00407969,8557.84,102.891
"2017-05-02 17:05:00 000",414.384,2.09727,1.99905,0.00436503,8652.57,94.9033
"2017-05-02 17:15:00 000",417.282,1.75703,1.98477,0.00801415,8474.39,107.931
"2017-05-02 17:25:00 000",413.585,1.36250,1.97389,0.00596875,8415.68,104.013
"2017-05-02 17:35:00 000",410.681,1.61522,1.96842,0.00587243,8489.19,114.650
"2017-05-02 17:45:00 000",409.047,1.70343,1.96527,0.00502855,8547.62,95.6289
"2017-05-02 17:55:00 000",407.476,0.886316,1.95888,0.00405559,8535.64,93.7300
"2017-05-02 18:05:00 000",408.210,1.59048,1.95901,0.00393236,8576.29,99.2143
"2017-05-02 18:15:00 000",409.141,0.856508,1.96180,0.00377787,8618.71,93.6817
"2017-05-02 18:25:00 000",409.785,1.00870,1.96065,0.00395021,8520.10,80.2543
"2017-05-02 18:35:00 000",410.285,1.05260,1.95961,0.00404047,8288.34,160.430
"2017-05-02 18:45:00 000",409.537,1.01917,1.95674,0.00413084,8067.30,112.706
"2017-05-02 18:55:00 000",411.097,1.05193,1.96061,0.00478542,7920.97,103.955
"2017-05-02 19:05:00 000",411.320,1.29678,1.96120,0.00437963,7862.07,116.545
"2017-05-02 19:15:00 000",411.652,0.872053,1.96318,0.00408599,7714.63,130.105
"2017-05-02 19:25:00 000",411.411,0.849944,1.96242,0.00400803,7614.32,91.0183
"2017-05-02 19:35:00 000",411.144,0.843827,1.96434,0.00389923,7719.07,95.0968
"2017-05-02 19:45:00 000",411.633,1.02178,1.96307,0.00396434,7645.43,102.548
"2017-05-02 19:55:00 000",412.685,0.977251,1.96632,0.00379581,7696.77,107.686
"2017-05-02 20:05:00 000",413.879,0.959515,1.96578,0.00392749,7714.64,103.314
"2017-05-02 20:15:00 000",414.648,1.49606,1.96826,0.00386988,7762.38,105.916
"2017-05-02 20:25:00 000",416.579,1.06755,1.96833,0.00378545,7712.59,98.6423
"2017-05-02 20:35:00 000",416.716,0.946863,1.97118,0.00401486,7760.63,112.077
"2017-05-02 20:45:00 000",416.850,1.27286,1.97088,0.00377032,7767.63,106.745
"2017-05-02 20:55:00 000",416.691,1.63847,1.97164,0.00427258,7690.33,105.892
"2017-05-02 21:05:00 000",415.102,1.97416,1.96782,0.00421007,7658.31,93.6048
"2017-05-02 21:15:00 000",416.536,1.60024,1.97036,0.00369629,7640.01,91.0801
"2017-05-02 21:25:00 000",416.139,2.02935,1.97330,0.00493716,7625.11,96.5433
"2017-05-02 21:35:00 000",415.322,1.48600,1.96933,0.00436167,7661.97,98.0053
"2017-05-02 21:45:00 000",417.166,1.60432,1.97102,0.00647751,7746.02,108.100
"2017-05-02 21:55:00 000",418.549,0.987492,1.98368,0.00456506,7840.26,118.831
"2017-05-02 22:05:00 000",417.658,1.19890,1.98833,0.00418999,7942.34,112.401
"2017-05-02 22:15:00 000",415.784,1.42618,1.99119,0.00419281,8036.47,129.553
"2017-05-02 22:25:00 000",414.127,1.50783,1.98997,0.00431213,8065.45,134.576
"2017-05-02 22:35:00 000",413.678,1.44354,1.99008,0.00399901,8123.51,120.991
"2017-05-02 22:45:00 000",413.488,0.985371,1.99101,0.00421691,8173.62,146.352
"2017-05-02 22:55:00 000",412.585,0.877862,1.99418,0.00426860,8251.25,158.264
"2017-05-02 23:05:00 000",412.711,0.865242,1.99503,0.00456404,8335.84,152.576
"2017-05-02 23:15:00 000",412.513,0.919087,1.99267,0.00465279,8382.57,170.236
"2017-05-02 23:25:00 000",412.805,1.01778,1.99305,0.00539897,8334.85,178.217
"2017-05-02 23:35:00 000",412.529,1.07464,1.99079,0.00618036,8374.69,201.421
"2017-05-02 23:45:00 000",412.486,1.32250,1.99177,0.00795475,8355.32,208.336
"2017-05-02 23:55:00 000",413.378,2.04418,1.99001,0.00881815,8323.12,212.216
"2017-05-03 00:05:00 000",415.262,0.850798,1.99672,0.00541210,8374.18,229.586
"2017-05-03 00:15:00 000",414.947,1.08173,1.98958,0.00731299,8220.99,218.089
"2017-05-03 00:25:00 000",410.531,2.07327,1.97017,0.00972192,8055.19,226.723
"2017-05-03 00:35:00 000",410.586,0.935851,1.97498,0.00614097,8131.31,229.922
"2017-05-03 00:45:00 000",409.357,1.02688,1.97402,0.00624391,8187.06,222.695
"2017-05-03 00:55:00 000",408.614,1.04283,1.97049,0.00676861,8115.56,215.152
"2017-05-03 01:05:00 000",407.699,0.862666,1.96793,0.00703279,8124.20,222.762
"2017-05-03 01:15:00 000",408.474,0.956306,1.96983,0.00547650,8154.14,220.370
"2017-05-03 01:25:00 000",408.825,0.985677,1.97008,0.00587089,8064.88,221.384
"2017-05-03 01:35:00 000",408.689,1.19852,1.96718,0.00716433,7946.38,213.191
"2017-05-03 01:45:00 000",406.186,1.05327,1.95819,0.00639762,7897.35,207.934
"2017-05-03 01:55:00 000",406.317,1.30114,1.95757,0.00738243,7988.87,216.485
"2017-05-03 02:05:00 000",406.556,1.24655,1.95935,0.00690305,7933.83,224.037